This is the latest recevied weather packets stored in our database for station/object KC5TIL. If no packets are shown the sender has not sent any weather packets the latest 10 day(s).
| Time | Temp. | Humidity | Pressure | Rain* | Wind** | Luminosity | Snow |
|---|---|---|---|---|---|---|---|
| 1777333259 | 31.11° C | 67% | 1008.3 hPa | 0 mm | - | 85 W/m² | - |
| 1777332957 | 31.67° C | 65% | 1008.3 hPa | 0 mm | - | 61 W/m² | - |
| 1777332655 | 31.67° C | 62% | 1008.2 hPa | 0 mm | - | 68 W/m² | - |
| 1777332351 | 31.67° C | 60% | 1008.2 hPa | 0 mm | - | 163 W/m² | - |
| 1777332048 | 32.22° C | 60% | 1008.3 hPa | 0 mm | - | 111 W/m² | - |
| 1777331746 | 32.78° C | 60% | 1008.3 hPa | 0 mm | - | 99 W/m² | - |
| 1777331443 | 33.33° C | 55% | 1008.3 hPa | 0 mm | - | 162 W/m² | - |
| 1777331140 | 32.22° C | 57% | 1008.3 hPa | 0 mm | - | 215 W/m² | - |
| 1777330837 | 32.22° C | 60% | 1008.2 hPa | 0 mm | - | 229 W/m² | - |
| 1777330534 | 31.67° C | 62% | 1008.1 hPa | 0 mm | - | 163 W/m² | - |
| 1777330231 | 31.67° C | 63% | 1008.1 hPa | 0 mm | - | 68 W/m² | - |
| 1777329929 | 31.67° C | 62% | 1008 hPa | 0 mm | - | 74 W/m² | - |
| 1777329627 | 32.22° C | 61% | 1008.1 hPa | 0 mm | - | 97 W/m² | - |
| 1777329325 | 32.78° C | 60% | 1007.8 hPa | 0 mm | - | 94 W/m² | - |
| 1777329023 | 32.78° C | 60% | 1007.8 hPa | 0 mm | - | 315 W/m² | - |
| 1777328721 | 32.78° C | 61% | 1008.1 hPa | 0 mm | - | 216 W/m² | - |
| 1777328418 | 32.22° C | 61% | 1008 hPa | 0 mm | - | 111 W/m² | - |
| 1777328116 | 33.33° C | 57% | 1008 hPa | 0 mm | - | 229 W/m² | - |
| 1777327815 | 35.56° C | 53% | 1007.8 hPa | 0 mm | - | 434 W/m² | - |
| 1777327511 | 36.11° C | 41% | 1007.9 hPa | 0 mm | - | 469 W/m² | - |
| 1777327209 | 35° C | 41% | 1007.8 hPa | 0 mm | - | 487 W/m² | - |
| 1777326906 | 35° C | 44% | 1007.9 hPa | 0 mm | - | 456 W/m² | - |
| 1777326603 | 34.44° C | 47% | 1007.6 hPa | 0 mm | - | 476 W/m² | - |
| 1777326300 | 34.44° C | 45% | 1008 hPa | 0 mm | - | 470 W/m² | - |
| 1777325997 | 35.56° C | 40% | 1008 hPa | 0 mm | - | 485 W/m² | - |
* Rain latest hour (hover to see other rain measurements)
** Current wind speed in m/s (hover to see current wind gust speed)